Bei uns kannst du mitfliegen! Besuche uns und lerne uns kennen - als Gast, Pilot oder jemand der es werden möchte.

Kölner Klub für Luftsport e.V.

KKFL.de

Ausbildung – Fliegen – Abenteuer

Ausbildung im KKFL

Ausbildung

Fliegen lernen im Verein
Der KKFL.de bietet eine effiziente, schnelle Ausbildung zur Pivatpilotenlizenz (PPL) in verschiedenen Ausprägungen an. Nach der Ausbildung können diverse Ergänzungen vom Verstellpropeller bis hin zu Nachtflug oder das Fliegen nach Instrumentenflugregeln (IFR) angeschlossen werden.
Fliegen im Verein ist günstig!

Unsere Flotte

Cessna 172 S

D-EOCD
Die Cessna ist als schnelle Schul- und Reisemaschine gleichsam beliebt. Unsere vereins-eigene Flotte sorgt für Abwechlung bei den Piloten und unsere Werft senkt Kosten. In der Ausbildung dürfen Schüler über 'ihre Maschine' mit entscheiden.

Cessna 172 R

D-EFPB

2 x Piper PA 28 II

D-EFPA / D-ELFF

Aquila A210

D-EAQJ

Diamond DA 40

D-EKKL

Flugplatz Hangelar


[Quelle: ADDS]
METAR
EDDK 231350Z 07005KT 040V100 9999 BKN020 M01/M06 Q0999 R14L/110195 R14R///99// R06///99// NOSIG =
EDDK 231100Z 2312/2418 10006KT 9999 SCT030 BECMG 2315/2318 VRB03KT PROB30 TEMPO 2407/2410 4000 BR BKN014
TAF
EDDK 231100Z 2312/2418 10006KT 9999 SCT030 BECMG 2315/2318 VRB03KT PROB30 TEMPO 2407/2410 4000 BR BKN014 =
SR / SS: 07:19 / 16:06 UTC (EDKB 2019-01-23)

Links und Partner

Du willst fliegen?

Während unserer Bürozeiten und auch dazwischen sind wir für deine Fragen da.
Bitte kontaktiere den Verein unter den angegebenen Adressen.
[Quelle: ADDS]
METAR
EDDK 231350Z 07005KT 040V100 9999 BKN020 M01/M06 Q0999 R14L/110195 R14R///99// R06///99// NOSIG =
EDDK 231100Z 2312/2418 10006KT 9999 SCT030 BECMG 2315/2318 VRB03KT PROB30 TEMPO 2407/2410 4000 BR BKN014
TAF
EDDK 231100Z 2312/2418 10006KT 9999 SCT030 BECMG 2315/2318 VRB03KT PROB30 TEMPO 2407/2410 4000 BR BKN014 =
SR / SS: 07:19 / 16:06 UTC (EDKB 2019-01-23)
© 2018 - Kölner Klub für Luftsport e.V.
Bonn / Hangelar - EDKB - Germany